TimeEST,TemperatureF,Dew PointF,Humidity,Sea Level PressureIn,VisibilityMPH,Wind Direction,Wind SpeedMPH,Gust SpeedMPH,PrecipitationIn,Events,Conditions,WindDirDegrees,DateUTC
12:14 AM,46.4,44.6,93,29.99,2.5,ESE,3.5,-,N/A,,Overcast,110,2011-11-29 05:14:00
12:25 AM,46.4,44.6,93,29.98,3.0,Calm,Calm,-,N/A,,Overcast,0,2011-11-29 05:25:00
12:54 AM,46.9,45.0,93,29.96,9.0,ESE,3.5,-,N/A,,Overcast,120,2011-11-29 05:54:00
1:54 AM,46.9,45.0,93,29.96,10.0,SE,5.8,-,N/A,,Overcast,130,2011-11-29 06:54:00
2:54 AM,48.9,46.0,90,29.95,10.0,Calm,Calm,-,N/A,,Overcast,0,2011-11-29 07:54:00
3:54 AM,48.9,46.0,90,29.93,10.0,Calm,Calm,-,N/A,,Overcast,0,2011-11-29 08:54:00
4:54 AM,51.1,46.9,86,29.91,10.0,East,4.6,-,N/A,,Overcast,90,2011-11-29 09:54:00
5:54 AM,51.1,46.9,86,29.89,10.0,East,3.5,-,N/A,,Overcast,80,2011-11-29 10:54:00
6:54 AM,53.1,48.9,86,29.87,10.0,East,6.9,-,N/A,,Overcast,90,2011-11-29 11:54:00
7:54 AM,55.0,51.1,86,29.87,10.0,ESE,5.8,-,N/A,,Overcast,120,2011-11-29 12:54:00
8:54 AM,62.1,55.0,78,29.87,10.0,SSE,10.4,-,N/A,,Overcast,150,2011-11-29 13:54:00
9:54 AM,61.0,55.9,83,29.88,10.0,ESE,6.9,-,0.01,,Overcast,120,2011-11-29 14:54:00
10:33 AM,60.8,55.4,82,29.86,10.0,East,9.2,-,N/A,,Overcast,90,2011-11-29 15:33:00
10:54 AM,59.0,54.0,83,29.84,10.0,East,11.5,-,N/A,,Overcast,80,2011-11-29 15:54:00
11:54 AM,61.0,54.0,78,29.78,10.0,ESE,9.2,-,N/A,,Overcast,110,2011-11-29 16:54:00
12:54 PM,62.1,54.0,75,29.74,10.0,East,8.1,-,N/A,,Overcast,80,2011-11-29 17:54:00
1:54 PM,61.0,54.0,78,29.71,10.0,East,8.1,-,N/A,,Overcast,100,2011-11-29 18:54:00
2:24 PM,66.2,55.4,68,29.71,10.0,South,16.1,23.0,N/A,,Overcast,170,2011-11-29 19:24:00
2:54 PM,62.1,57.0,84,29.70,4.0,SE,13.8,-,0.00,Rain,Light Rain,130,2011-11-29 19:54:00
3:54 PM,61.0,57.0,87,29.67,10.0,ESE,12.7,-,0.00,Rain,Light Rain,120,2011-11-29 20:54:00
4:54 PM,60.1,57.0,90,29.65,8.0,ESE,12.7,-,0.02,Rain,Rain,110,2011-11-29 21:54:00
5:52 PM,59.0,57.2,94,29.64,7.0,ESE,8.1,-,0.06,Rain,Light Rain,110,2011-11-29 22:52:00
5:54 PM,59.0,57.0,93,29.64,8.0,ESE,6.9,-,0.06,Rain,Light Rain,110,2011-11-29 22:54:00
6:54 PM,59.0,55.9,90,29.62,9.0,ESE,11.5,-,0.10,Rain,Rain,110,2011-11-29 23:54:00
7:54 PM,57.9,55.9,93,29.60,10.0,ESE,9.2,-,0.07,Rain,Light Rain,120,2011-11-30 00:54:00
8:54 PM,57.9,55.9,93,29.57,8.0,Variable,6.9,-,0.12,Rain,Rain,0,2011-11-30 01:54:00
9:54 PM,57.9,55.0,90,29.51,10.0,East,6.9,-,0.03,Rain,Light Rain,100,2011-11-30 02:54:00
10:54 PM,57.9,52.0,81,29.48,10.0,South,8.1,-,0.01,,Overcast,180,2011-11-30 03:54:00
11:54 PM,55.9,48.9,77,29.47,10.0,SSW,11.5,-,0.00,,Mostly Cloudy,200,2011-11-30 04:54:00